Location: Bosmont
(49.7318°N, 3.8587°E)
Time: 13:01:02
(UTC+00:00)

IGS 5A - Pass Details

Date: 08 February 2023
Orbit: 578 x 583 km, 97.5° (Epoch: 10 March)

Event Time Altitude Azimuth Distance (km) Brightness Sun altitude
Exits shadow 18:46:29 28° 144° (SE) 1,102 4.5 -19.0°
Maximum altitude 18:48:29 61° 73° (ENE) 663 3.4 -19.3°
Drops below altitude 10° 18:52:34 10° 353° (N) 1,908 6.1 -20.0°
Sets 18:54:45 0° 350° (N) 2,812 7.1 -20.3°
